Voltar ao catálogo

COSMOS 2251 DEB

AtivoLEO
NORAD 35703·DEBRIS·🇷🇺 Russia

Lançado Jun 16, 1993 de Plesetsk Cosmodrome

Loading…

Próximas Passagens (próximas 24 horas)

TLE

EnvelhecendoSource: Space-Track

Época: Sep 12, 2026, 04:06 UTC

1 35703U 93036APY 26255.17088995  .00003647  00000-0  33193-3 0  9998
2 35703  74.0392 213.5735 0063338 212.8560 146.8681 14.94060658706952

Acompanhe COSMOS 2251 DEB em tempo real com AllMySat

Download on the App Store